Date,TemperatureHighF,TemperatureAvgF,TemperatureLowF,DewpointHighF,DewpointAvgF,DewpointLowF,HumidityHigh,HumidityAvg,HumidityLow,PressureMaxIn,PressureMinIn,WindSpeedMaxMPH,WindSpeedAvgMPH,GustSpeedMaxMPH,PrecipitationSumIn
2013-9-1,93.5,79.3,74.1,75.0,61.7,42.3,66,56,32,29.99,29.87,8,1,17,0.09
2013-9-2,85.4,75.3,65.1,68.0,52.9,37.5,64,47,31,30.09,29.98,5,1,12,0.00
2013-9-3,87.4,73.1,59.5,66.8,50.3,31.1,64,46,32,30.17,30.07,4,0,8,0.01
2013-9-4,89.1,74.8,63.5,69.3,54.8,36.0,66,51,36,30.24,30.13,2,0,7,0.00
2013-9-5,89.5,76.5,64.3,68.6,60.4,47.2,66,58,40,30.26,30.17,3,0,8,0.00
2013-9-6,91.5,77.1,64.0,71.2,60.1,42.6,67,56,40,30.22,30.08,3,0,6,0.00
2013-9-7,95.5,80.2,69.0,74.9,63.9,55.2,67,59,40,30.12,30.00,4,1,11,0.00
2013-9-8,95.1,81.7,70.3,74.4,64.9,54.6,66,58,41,30.04,29.95,5,1,11,0.00
2013-9-9,92.9,80.5,69.7,70.7,63.9,54.4,67,58,39,30.08,29.99,6,1,12,0.00
2013-9-10,92.5,79.3,70.2,72.0,63.7,58.3,67,60,37,30.20,30.06,6,1,13,0.00
2013-9-11,93.5,79.9,70.1,72.3,63.2,53.7,66,57,41,30.23,30.11,4,0,8,0.00
2013-9-12,91.6,78.6,68.1,72.3,59.3,37.2,63,52,31,30.18,30.07,5,1,13,0.00
2013-9-13,83.4,72.4,59.7,56.9,53.9,48.2,67,53,37,30.17,30.06,7,2,13,0.00
2013-9-14,82.1,67.7,55.0,59.7,50.4,35.0,66,55,41,30.18,30.06,6,1,13,0.00
2013-9-15,88.8,74.1,61.4,68.3,58.8,50.3,67,60,47,30.14,30.07,6,1,10,0.00
2013-9-16,76.8,72.3,69.1,62.2,47.9,37.2,66,43,31,30.28,30.12,4,1,10,0.16
2013-9-17,79.9,73.5,67.5,65.7,50.2,38.1,63,45,31,30.23,30.08,4,1,10,0.07
2013-9-18,89.0,78.6,71.0,72.0,62.2,46.9,64,58,42,30.10,29.98,7,3,12,0.00
2013-9-19,89.9,79.1,71.0,71.8,63.8,39.6,65,60,32,30.06,29.92,8,3,20,0.23
2013-9-20,71.0,66.6,56.0,58.8,44.3,36.5,69,47,31,30.08,30.00,4,0,12,0.63
2013-9-21,75.8,61.3,47.6,57.1,41.3,24.1,69,48,35,30.15,30.03,3,0,10,0.00
2013-9-22,77.3,63.8,51.4,55.7,45.0,27.2,70,52,36,30.10,29.96,4,0,10,0.01
2013-9-23,61.2,58.1,55.5,51.3,47.2,42.4,70,67,62,30.01,29.98,2,0,8,0.00
2013-9-24,77.1,68.4,59.1,60.4,55.8,44.3,70,65,54,29.98,29.93,6,2,16,0.00
2013-9-25,81.2,66.5,52.3,64.2,47.4,26.6,67,51,33,30.01,29.91,3,0,9,0.00
2013-9-26,87.1,73.3,61.3,64.9,57.1,46.1,69,58,40,30.03,29.93,5,1,15,0.00
2013-9-27,85.1,74.9,64.2,66.1,60.1,49.6,70,61,45,30.08,29.97,8,3,13,0.00
2013-9-28,79.5,69.0,60.3,67.8,49.2,32.1,70,52,31,30.17,29.96,11,4,18,0.75
2013-9-29,75.6,63.3,55.5,59.9,42.5,29.2,71,48,35,30.18,30.04,5,1,13,0.01
2013-9-30,80.1,68.3,56.7,65.8,47.8,31.1,70,49,33,30.05,29.94,4,1,9,0.01